Location: Kansas State University
(39.1938°N, 96.5858°W)
Time: 12:46:39
(UTC-05:00)

Daily predictions for brighter satellites

Satellite Brightness Start Highest point End
(mag) Time Altitude Azimuth Time Altitude Azimuth Time Altitude Azimuth
CZ-2D R/B 3.4 20:42:32 10° SSE 20:46:22 59° ENE 20:50:11 10° N
GRACE-1 3.9 20:45:44 10° N 20:48:28 82° W 20:51:12 10° S
GRACE-2 3.9 20:46:06 10° N 20:48:50 83° W 20:51:33 10° S
Resurs 01 Rocket 1.6 20:45:25 10° SSE 20:49:51 83° ENE 20:54:20 10° N
Cosmos 1315 Rocket 3.9 20:51:21 10° NNW 20:55:17 49° W 20:59:08 10° S
ORS 1 (USA 231) 4.5 20:52:51 10° W 20:55:56 82° SSW 20:58:49 11° ESE
USA 229 DEB 4.1 20:56:16 10° S 21:02:29 39° ESE 21:08:48 10° NE
USA 229 4.1 20:56:24 10° S 21:02:36 39° ESE 21:08:54 10° NE
ALOS 3.8 20:58:36 10° SSW 21:02:55 37° W 21:07:16 10° NNW
OAO 3 Rocket 3.7 20:58:48 10° W 21:03:28 48° S 21:07:39 13° ESE
Cosmos 1933 3.6 21:01:23 10° SSE 21:05:16 47° E 21:09:09 10° NNE
Cosmos 1992 Rocket 4.1 21:06:14 10° SSW 21:11:29 87° WNW 21:16:45 10° NNE
Meteor 2-10 Rocket 4.1 21:08:25 10° SSE 21:13:54 44° E 21:19:20 10° NNE
Cosmos 1733 Rocket 3.0 21:12:31 10° N 21:17:00 78° E 21:21:27 10° S
Cosmos 2026 Rocket 4.1 21:12:23 10° N 21:18:37 82° W 21:24:43 10° S
Cosmos 2219 Rocket 3.8 21:20:01 14° E 21:20:06 14° E 21:22:49 10° ENE
Helios 1A 3.0 21:16:00 10° SSE 21:20:13 76° ENE 21:24:29 10° N
Cosmos 1862 3.3 21:16:51 10° N 21:20:53 85° E 21:24:57 10° S
Okean 1-7 4.4 21:21:00 17° ESE 21:22:23 20° E 21:25:37 10° NE
Cosmos 1862 Rocket 3.6 21:21:27 10° S 21:25:55 86° W 21:30:26 10° N
USA 267 4.2 21:23:22 10° NE 21:29:39 50° NW 21:35:54 10° WSW
Meteor 1-26 Rocket 4.4 21:27:43 10° S 21:33:14 55° E 21:38:54 10° NNE
USA 186 3.4 21:35:11 10° SSW 21:37:40 28° W 21:40:18 10° NNW
SAR-Lupe-4 4.0 21:37:25 13° S 21:40:35 61° W 21:44:08 10° NNW
Cosmos 2263 Rocket 2.5 21:36:28 10° NNW 21:41:58 64° WSW 21:46:55 13° S
Cosmos 1939 Rocket 2.8 21:39:19 18° SSE 21:42:17 89° ESE 21:46:18 10° NNW
Cosmos 968 Rocket 3.4 21:40:41 10° NNW 21:45:55 75° ENE 21:49:07 24° SSE
Cosmos 1703 Rocket 3.6 21:43:25 17° S 21:46:38 58° E 21:51:00 10° NNE
Cosmos 2322 Rocket 4.3 21:48:12 10° WSW 21:53:00 28° WNW 21:57:50 10° N
Cosmos 2237 4.1 21:47:34 10° SSW 21:53:14 68° ESE 21:58:56 10° NNE
CZ-4B DEB 3.9 21:54:55 20° SSW 21:56:36 38° W 21:59:28 10° NNW
Meteor 1-29 4.2 21:53:42 10° N 21:57:00 42° WNW 22:00:16 10° SW
Atlas Centaur 2 3.2 21:52:27 10° WSW 21:58:42 42° S 22:02:01 29° SE
Cosmos 2360 Rocket 2.7 21:54:44 10° SW 22:00:20 62° WNW 22:05:58 10° NNE
MetOp-B 4.4 21:59:17 32° SE 22:01:23 50° ENE 22:06:34 10° N
Envisat 3.8 21:57:21 10° S 22:02:10 50° W 22:07:07 10° NNW
COSMOS 2428 2.7 21:57:05 10° S 22:02:40 62° ESE 22:08:17 10° NNE
USA 234 3.3 21:59:28 28° ESE 22:03:11 73° NE 22:09:43 10° NW
Helios 1B rocket 4.1 21:59:30 10° N 22:03:14 34° WNW 22:06:56 10° SW
Lacrosse 4 Rocket 4.1 22:00:44 10° WNW 22:03:15 15° WSW 22:05:46 10° SW
Cosmos 2266 Rocket 4.0 22:01:23 10° N 22:07:43 84° E 22:11:42 25° S
Cosmos 1867 3.8 22:03:38 10° NW 22:09:03 67° WSW 22:11:34 31° S
H-2A R/B 3.1 22:09:09 26° E 22:09:46 27° ENE 22:13:52 10° NNE
Cosmos 2221 Rocket 3.4 22:09:27 33° S 22:11:22 82° E 22:15:49 10° N
MOS 1-B Rocket 4.2 22:09:36 35° ESE 22:11:34 47° ENE 22:16:55 10° N
YAOGAN 11 4.2 22:11:08 48° ESE 22:11:53 56° ENE 22:16:08 10° N
NOAA 11 4.2 22:10:51 37° SE 22:13:00 68° ENE 22:18:27 10° N
ATLAS 5 CENTAUR R/B 2.9 22:07:41 10° NW 22:13:40 57° WSW 22:17:15 26° S
Cosmos 1844 4.3 22:09:48 10° N 22:15:06 39° ENE 22:16:28 34° E
Cosmos 1606 4.0 22:17:05 27° NE 22:17:05 27° NE 22:19:15 10° NNE
SEDSat Delta rocket 4.4 22:12:56 10° WSW 22:17:37 33° S 22:18:07 32° S
Meteor 1-14 Rocket 4.3 22:14:34 10° NNW 22:20:17 77° W 22:23:20 29° S
ARGOS 3.3 22:18:59 44° ESE 22:20:22 58° ENE 22:25:38 10° N
Meteor 1-25 Rocket 4.1 22:15:31 10° N 22:21:07 79° E 22:23:01 43° SSE
Cosmos 1570 Rocket 4.3 22:22:48 46° ESE 22:22:48 46° ESE 22:27:47 10° NNE
ERS-1 Rocket 3.2 22:22:02 33° S 22:24:14 67° WSW 22:29:15 10° NNW
SeaSat 1 3.1 22:24:45 38° E 22:25:31 40° ENE 22:30:07 10° N
H-2A R/B 3.7 22:31:01 22° NE 22:31:01 22° NE 22:33:47 10° NNE
Meteor 1-20 Rocket 4.1 22:25:01 10° N 22:30:38 84° E 22:32:18 48° SSE
Cosmos 2208 Rocket 4.2 22:33:32 52° E 22:33:32 52° E 22:38:31 10° NNE
YAOGAN 6 4.1 22:32:38 28° SW 22:33:29 32° W 22:36:45 10° NNW
Cosmos 2237 Rocket 3.1 22:40:20 34° ENE 22:40:20 34° ENE 22:44:09 10° NE
SL-08 RB Rocket 3.6 22:39:25 70° ENE 22:39:25 70° ENE 22:43:57 10° N
SPOT 5 2.7 22:39:13 72° S 22:39:43 89° WSW 22:44:22 10° NNW
Cosmos 2333 4.4 22:34:41 10° SSW 22:40:23 74° WNW 22:46:11 10° NNE
Cosmos 2333 Rocket 2.2 22:41:58 59° ESE 22:42:05 59° ESE 22:47:46 10° NNE
Cosmos 1553 Rocket 4.2 22:41:44 48° ESE 22:42:08 49° E 22:48:04 10° NNE
Cosmos 1844 Rocket 2.5 22:37:57 10° NNW 22:43:34 88° ENE 22:44:25 65° SSE
Cosmos 2278 Rocket 2.9 22:39:49 10° N 22:45:05 38° ENE 22:45:29 37° ENE
Meteor 2-6 Rocket 4.2 22:43:45 55° SSE 22:45:07 78° E 22:51:05 10° NNE
NOSS 3-1 (C) 3.2 22:41:21 12° SSW 22:46:43 87° ESE 22:53:07 10° NE
MetOp-A 4.5 22:45:47 42° SSW 22:47:20 59° W 22:52:38 10° NNW
Gbstr 26 Del rocket 4.4 22:45:23 10° SSW 22:52:51 58° SE 23:00:49 10° ENE
ASTEX 1 4.0 22:54:58 46° NE 22:54:58 46° NE 22:59:04 10° N
CZ-4C R/B 3.3 22:48:02 10° NNW 22:54:57 49° NE 22:57:01 40° E
SPOT 1/Viking Rocket 3.4 22:57:12 82° S 22:57:27 87° WSW 23:02:42 10° NNW
USA 245 4.4 22:58:56 52° SW 22:59:51 60° WSW 23:04:42 10° NNW
Cosmos 2219 Rocket 2.3 23:01:36 45° SW 23:03:18 73° WNW 23:08:57 10° NNE
NOSS 3-1 (A) 3.2 23:02:34 67° SSW 23:03:25 84° ESE 23:09:50 10° NE
Cosmos 1782 4.1 23:05:58 38° WNW 23:05:58 38° WNW 23:09:33 10° N
Landsat 7 4.1 23:08:19 61° N 23:08:19 61° N 23:12:19 10° N
Okean 2 Rocket 4.3 23:03:50 10° NNW 23:07:56 35° W 23:08:18 34° WSW
Milstar 3 4.5 23:04:09 10° WSW 23:07:27 16° SW 23:07:27 16° SW
S3M 3.8 23:13:05 81° SE 23:13:19 83° E 23:19:34 10° N
Meteor 2-11 Rocket 4.4 23:22:52 76° NE 23:22:52 76° NE 23:28:38 10° N
Terra 2.5 23:23:55 49° N 23:23:55 49° N 23:27:26 10° N
Meteor 1-27 Rocket 3.9 23:29:00 68° WNW 23:29:00 68° WNW 23:34:32 10° N
ATLAS 3B R/B 4.3 23:27:44 10° NNW 23:32:53 22° NE 23:35:09 18° ENE
Cosmos 2297 4.5 23:35:52 10° NNW 23:40:26 44° NNE 23:40:26 44° NNE
H-2A R/B 4.1 23:06:54 10° W 23:43:06 42° SSW 23:43:18 42° SSW
USA 234 4.4 23:46:49 29° WSW 23:46:49 29° WSW 23:52:04 10° WNW
Cosmos 1745 Rocket 4.2 23:41:22 10° NNW 23:47:32 66° W 23:47:32 66° W
Atlas Centaur 2 4.1 23:41:08 10° WSW 23:44:38 26° SW 23:44:38 26° SW
H-2A R/B 3.4 23:49:47 31° W 23:49:47 31° W 23:53:29 10° NNW
